Weather History for KJWG - July, 2013

Change the Weather History Date:

Monday, July 8, 2013

  Actual Average Record
Temperature  
Mean Temperature 85 °F -  
Max Temperature 97 °F 95 °F 104 °F (1964)
Min Temperature 73 °F 70 °F 60 °F (1983)
Cooling Degree Days 20    
Growing Degree Days 35 (Base 50)    
Moisture  
Dew Point 67 °F    
Average Humidity 56    
Maximum Humidity 78    
Minimum Humidity 37    
Precipitation  
Precipitation 0.00 in - - ()
Sea Level Pressure  
Sea Level Pressure 30.04 in    
Wind  
Wind Speed 0 mph (North)    
Max Wind Speed 0 mph    
Max Gust Speed -    
Visibility 10 miles    
Events      
Averages and records for this station are not official NWS values.
T = Trace of Precipitation, MM = Missing Value Source: NWS Daily Summary

Daily Weather History Graph

Daily Weather History Graph

Search for Another Location

Airport or City:

Trip Planner

Search our weather history database for the weather conditions in past years. The results will help you decide how hot, cold, wet, or windy it might be!

Date:

Astronomy

Jul. 08, 2013 Rise Set
Actual Time 6:24 AM CDT 8:52 PM CDT
Civil Twilight 5:54 AM CDT 9:22 PM CDT
Nautical Twilight 5:18 AM CDT 9:59 PM CDT
Astronomical Twilight 4:37 AM CDT 10:39 PM CDT
Moon 6:52 AM CDT (7/8) 8:59 PM CDT (7/8)
Length of Visible Light 15h 27m
Length of Day
14h 28m
New Moon, 0% of the Moon is Illuminated
Jul 8
New Moon
Jul 15
First Quarter
Jul 22
Full
Jul 29
Last Quarter
Aug 6
New

Hourly Weather History & Observations

Time (CDT) Temp. Heat Index Dew Point Humidity Pressure Visibility Wind Dir Wind Speed Gust Speed Precip Events Conditions
12:15 AM 80.1 °F 82.1 °F 65.8 °F 62% 30.02 in 10.0 mi North - - N/A   Clear
12:35 AM 79.5 °F - 65.8 °F 63% 30.03 in 10.0 mi North - - N/A   Clear
12:55 AM 79.0 °F - 65.8 °F 64% 30.02 in 10.0 mi North - - N/A   Clear
1:15 AM 78.3 °F - 65.8 °F 65% 30.02 in 10.0 mi North - - N/A   Clear
1:35 AM 77.9 °F - 65.8 °F 66% 30.02 in 10.0 mi North - - N/A   Clear
1:55 AM 77.0 °F - 65.8 °F 68% 30.03 in 10.0 mi North - - N/A   Clear
2:15 AM 76.3 °F - 65.7 °F 70% 30.03 in 10.0 mi North - - N/A   Clear
2:35 AM 76.1 °F - 65.7 °F 70% 30.03 in 10.0 mi North - - N/A   Clear
2:55 AM 75.7 °F - 65.3 °F 70% 30.04 in 10.0 mi North - - N/A   Clear
3:15 AM 75.4 °F - 65.5 °F 71% 30.04 in 10.0 mi North - - N/A   Clear
3:35 AM 74.5 °F - 65.3 °F 73% 30.04 in 10.0 mi North - - N/A   Clear
3:55 AM 74.3 °F - 65.3 °F 73% 30.04 in 10.0 mi North - - N/A   Clear
4:15 AM 74.3 °F - 65.3 °F 73% 30.04 in 10.0 mi North - - N/A   Clear
4:35 AM 74.3 °F - 65.3 °F 73% 30.04 in 10.0 mi North - - N/A   Clear
4:55 AM 73.6 °F - 65.1 °F 75% 30.04 in 10.0 mi North - - N/A   Clear
5:15 AM 73.8 °F - 65.3 °F 75% 30.04 in 10.0 mi North - - N/A   Clear
5:35 AM 73.6 °F - 65.5 °F 76% 30.04 in 10.0 mi North - - N/A   Clear
5:55 AM 73.8 °F - 65.8 °F 76% 30.04 in 10.0 mi North - - N/A   Clear
6:15 AM 73.9 °F - 66.2 °F 77% 30.04 in 10.0 mi North - - N/A   Clear
6:35 AM 73.8 °F - 66.2 °F 77% 30.04 in 10.0 mi North - - N/A   Clear
6:55 AM 73.6 °F - 66.2 °F 78% 30.05 in 10.0 mi North - - N/A   Clear
7:15 AM 73.9 °F - 66.6 °F 78% 30.06 in 10.0 mi North - - N/A   Clear
7:35 AM 75.2 °F - 67.1 °F 76% 30.06 in 10.0 mi North - - N/A   Clear
7:55 AM 76.3 °F - 68.0 °F 75% 30.06 in 10.0 mi North - - N/A   Clear
8:15 AM 77.9 °F - 68.5 °F 73% 30.06 in 10.0 mi North - - N/A   Clear
8:35 AM 79.7 °F - 69.1 °F 70% 30.07 in 10.0 mi North - - N/A   Clear
8:55 AM 81.7 °F 85.1 °F 69.4 °F 66% 30.07 in 10.0 mi North - - N/A   Clear
9:15 AM 83.1 °F 86.6 °F 69.1 °F 62% 30.08 in 10.0 mi North - - N/A   Clear
9:35 AM 84.2 °F 87.9 °F 69.1 °F 60% 30.08 in 10.0 mi North - - N/A   Clear
9:55 AM 85.8 °F 89.7 °F 69.1 °F 57% 30.08 in 10.0 mi North - - N/A   Clear
10:15 AM 86.9 °F 91.0 °F 69.1 °F 55% 30.07 in 10.0 mi North - - N/A   Clear
10:35 AM 88.0 °F 91.8 °F 68.4 °F 52% 30.08 in 10.0 mi North - - N/A   Clear
10:55 AM 89.6 °F 93.9 °F 68.7 °F 50% 30.08 in 10.0 mi North - - N/A   Clear
11:15 AM 90.7 °F 95.0 °F 68.5 °F 48% 30.08 in 10.0 mi North - - N/A   Clear
11:35 AM 90.9 °F 95.3 °F 68.9 °F 48% 30.08 in 10.0 mi North - - N/A   Clear
11:55 AM 91.6 °F 96.2 °F 68.9 °F 47% 30.08 in 10.0 mi North - - N/A   Clear
12:15 PM 92.3 °F 97.0 °F 68.9 °F 46% 30.07 in 10.0 mi North - - N/A   Clear
12:35 PM 93.4 °F 97.6 °F 68.0 °F 43% 30.06 in 10.0 mi North - - N/A   Clear
12:55 PM 93.9 °F 98.0 °F 67.6 °F 42% 30.06 in 10.0 mi North - - N/A   Clear
1:15 PM 94.6 °F 97.8 °F 66.2 °F 39% 30.06 in 10.0 mi North - - N/A   Clear
1:35 PM 94.8 °F 99.8 °F 68.2 °F 42% 30.05 in 10.0 mi North - - N/A   Clear
1:55 PM 95.5 °F 100.0 °F 68.0 °F 40% 30.04 in 10.0 mi North - - N/A   Scattered Clouds
2:15 PM 95.7 °F 100.3 °F 67.6 °F 40% 30.03 in 10.0 mi North - - N/A   Scattered Clouds
2:35 PM 95.9 °F 99.6 °F 66.4 °F 38% 30.03 in 10.0 mi North - - N/A   Scattered Clouds
2:55 PM 96.3 °F 99.7 °F 66.0 °F 37% 30.03 in 10.0 mi North - - N/A   Clear
3:15 PM 96.8 °F 100.7 °F 66.9 °F 37% 30.02 in 10.0 mi Calm Calm - N/A   Scattered Clouds
3:35 PM 95.4 °F 98.6 °F 66.2 °F 38% 30.02 in 10.0 mi North - - N/A   Scattered Clouds
3:55 PM 97.3 °F 102.3 °F 67.6 °F 38% 30.02 in 10.0 mi Calm Calm - N/A   Scattered Clouds
4:15 PM 97.7 °F 102.4 °F 67.3 °F 37% 30.02 in 10.0 mi Calm Calm - N/A   Scattered Clouds
4:35 PM 97.2 °F 101.9 °F 67.3 °F 38% 30.01 in 10.0 mi North - - N/A   Scattered Clouds
4:55 PM 96.4 °F 100.0 °F 66.6 °F 37% 30.01 in 10.0 mi North - - N/A   Scattered Clouds
5:15 PM 96.6 °F 100.3 °F 66.7 °F 37% 30.00 in 10.0 mi Calm Calm - N/A   Scattered Clouds
5:35 PM 96.4 °F 100.0 °F 66.4 °F 37% 30.00 in 10.0 mi North - - N/A   Scattered Clouds
5:55 PM 95.9 °F 100.1 °F 67.5 °F 39% 29.99 in 10.0 mi North - - N/A   Scattered Clouds
6:15 PM 95.9 °F 100.1 °F 67.1 °F 39% 29.99 in 10.0 mi North - - N/A   Scattered Clouds
6:35 PM 95.4 °F 100.2 °F 68.0 °F 41% 29.99 in 10.0 mi North - - N/A   Scattered Clouds
6:55 PM 94.8 °F 99.2 °F 67.8 °F 41% 29.99 in 10.0 mi North - - N/A   Clear
7:15 PM 94.1 °F 98.9 °F 68.2 °F 43% 29.99 in 10.0 mi North - - N/A   Clear
7:35 PM 93.2 °F 97.7 °F 68.2 °F 44% 29.99 in 10.0 mi North - - N/A   Clear
7:55 PM 92.3 °F 96.5 °F 68.4 °F 45% 29.99 in 10.0 mi North - - N/A   Clear
8:15 PM 91.4 °F 95.8 °F 68.4 °F 47% 29.99 in 10.0 mi North - - N/A   Clear
8:35 PM 90.3 °F 94.7 °F 68.7 °F 49% 30.00 in 10.0 mi North - - N/A   Clear
8:55 PM 89.2 °F 93.2 °F 68.4 °F 50% 30.00 in 10.0 mi North - - N/A   Clear
9:15 PM 88.2 °F 92.1 °F 68.5 °F 52% 30.01 in 10.0 mi North - - N/A   Clear
9:35 PM 87.1 °F 91.6 °F 69.4 °F 56% 30.01 in 10.0 mi North - - N/A   Clear
9:55 PM 86.4 °F 91.1 °F 69.8 °F 58% 30.02 in 10.0 mi North - - N/A   Clear
10:15 PM 86.0 °F 90.4 °F 69.8 °F 58% 30.03 in 10.0 mi North - - N/A   Clear
10:35 PM 85.5 °F 89.8 °F 69.6 °F 59% 30.04 in 10.0 mi North - - N/A   Clear
10:55 PM 84.9 °F 89.1 °F 69.8 °F 60% 30.04 in 10.0 mi North - - N/A   Clear
11:15 PM 84.2 °F 88.4 °F 69.8 °F 62% 30.04 in 10.0 mi North - - N/A   Clear
11:35 PM 83.5 °F 87.4 °F 69.8 °F 63% 30.04 in 10.0 mi North - - N/A   Clear
11:55 PM 83.5 °F 87.2 °F 69.4 °F 62% 30.04 in 10.0 mi North - - N/A   Clear